When you browse on this site, cookies collect data to enhance your experience and personalize the content and advertising you see.
Visit our Privacy Policy to learn more. By continuing to use the site, you agree to this use of cookies and data.
  • In United Kingdom
  • List of Countries
  • For 7 days
  • Water Temperature
  • Satellite Maps
  • Weather Map
  • Weather Widgets
  • user-avatar
    Login

    Hourly Weather Gjirokaster

    Today, 12 December, Wednesday

    Time Temperature Precipitation Wind Pressure Humidity
    00:00 -5°C° 0 mm 2 mps 649 mmHg 68%
    01:00 -5°C° 0 mm 2 mps 649 mmHg 68%
    02:00 -5°C° 0 mm 2 mps 649 mmHg 66%
    03:00 -5°C° 0 mm 2 mps 649 mmHg 65%
    04:00 -5°C° 0 mm 2 mps 649 mmHg 63%
    05:00 -5°C° 0 mm 2 mps 649 mmHg 61%
    06:00 -5°C° 0 mm 2 mps 650 mmHg 59%
    07:00 -5°C° 0 mm 2 mps 650 mmHg 57%
    08:00 -2°C° 0 mm 1 mps 650 mmHg 49%
    09:00 0°C° 0 mm 1 mps 651 mmHg 41%
    10:00 +1°C° 0 mm 1 mps 652 mmHg 33%
    11:00 +2°C° 0 mm 1 mps 652 mmHg 31%
    12:00 +2°C° 0 mm 1 mps 652 mmHg 29%
    13:00 +3°C° 0 mm 1 mps 652 mmHg 26%
    14:00 +2°C° 0 mm 1 mps 651 mmHg 31%
    15:00 +1°C° 0 mm 1 mps 651 mmHg 37%
    16:00 0°C° 0 mm 1 mps 651 mmHg 42%
    17:00 -1°C° 0 mm 1 mps 651 mmHg 42%
    18:00 -2°C° 0 mm 1 mps 651 mmHg 42%
    19:00 -2°C° 0 mm 1 mps 651 mmHg 42%
    20:00 -2°C° 0 mm 1 mps 651 mmHg 41%
    21:00 -4°C° 0 mm 2 mps 651 mmHg 41%
    22:00 -4°C° 0 mm 2 mps 651 mmHg 41%
    23:00 -4°C° 0 mm 2 mps 651 mmHg 40%

    Tomorrow, 13 December, Thursday

    Time Temperature Precipitation Wind Pressure Humidity
    00:00 -4°C° 0 mm 2 mps 651 mmHg 40%
    01:00 -4°C° 0 mm 2 mps 651 mmHg 39%
    02:00 -4°C° 0 mm 2 mps 651 mmHg 39%
    03:00 -4°C° 0 mm 2 mps 651 mmHg 39%
    04:00 -3°C° 0 mm 2 mps 651 mmHg 39%
    05:00 -4°C° 0.1 mm 3 mps 650 mmHg 41%
    06:00 -4°C° 0.1 mm 3 mps 650 mmHg 43%
    07:00 -4°C° 0.1 mm 3 mps 650 mmHg 45%
    08:00 -2°C° 0.1 mm 3 mps 650 mmHg 50%
    09:00 -2°C° 0.1 mm 3 mps 650 mmHg 55%
    10:00 -2°C° 0.1 mm 3 mps 650 mmHg 59%
    11:00 -1°C° 0.2 mm 3 mps 650 mmHg 63%
    12:00 -1°C° 0.2 mm 3 mps 650 mmHg 66%
    13:00 -1°C° 0.2 mm 3 mps 649 mmHg 70%
    14:00 -2°C° 0.3 mm 3 mps 649 mmHg 74%
    15:00 -2°C° 0.3 mm 3 mps 649 mmHg 78%
    16:00 -2°C° 0.3 mm 3 mps 649 mmHg 82%
    17:00 -2°C° 0.1 mm 3 mps 649 mmHg 83%
    18:00 -4°C° 0.1 mm 3 mps 649 mmHg 84%
    19:00 -4°C° 0.1 mm 3 mps 649 mmHg 84%
    20:00 -4°C° 0 mm 3 mps 649 mmHg 84%
    21:00 -4°C° 0 mm 3 mps 649 mmHg 84%
    22:00 -4°C° 0 mm 3 mps 649 mmHg 83%
    23:00 -4°C° 0 mm 4 mps 649 mmHg 84%

    Day after tomorrow, 14 December, Friday

    Time Temperature Precipitation Wind Pressure Humidity
    00:00 -3°C° 0 mm 4 mps 649 mmHg 84%
    01:00 -3°C° 0 mm 4 mps 649 mmHg 85%
    02:00 -3°C° 0.3 mm 4 mps 649 mmHg 86%
    03:00 -3°C° 0.3 mm 4 mps 649 mmHg 87%
    04:00 -2°C° 0.3 mm 4 mps 649 mmHg 89%
    05:00 -2°C° 0.6 mm 4 mps 649 mmHg 90%
    06:00 -2°C° 0.6 mm 4 mps 649 mmHg 90%
    07:00 -2°C° 0.6 mm 4 mps 649 mmHg 91%
    08:00 -1°C° 0.2 mm 4 mps 649 mmHg 89%
    09:00 0°C° 0.2 mm 4 mps 650 mmHg 88%
    10:00 +1°C° 0.2 mm 4 mps 650 mmHg 86%
    11:00 +1°C° 0.3 mm 4 mps 650 mmHg 87%
    12:00 +1°C° 0.3 mm 4 mps 649 mmHg 87%
    13:00 +1°C° 0.3 mm 4 mps 649 mmHg 88%
    14:00 +1°C° 0.1 mm 4 mps 649 mmHg 88%
    15:00 +1°C° 0.1 mm 4 mps 649 mmHg 89%
    16:00 +1°C° 0.1 mm 4 mps 649 mmHg 89%
    17:00 0°C° 0 mm 4 mps 649 mmHg 89%
    18:00 0°C° 0 mm 4 mps 649 mmHg 89%
    19:00 -1°C° 0 mm 4 mps 649 mmHg 89%
    20:00 -1°C° 0 mm 4 mps 649 mmHg 88%
    21:00 -1°C° 0 mm 4 mps 649 mmHg 88%
    22:00 -1°C° 0 mm 4 mps 649 mmHg 87%
    23:00 -1°C° 0.1 mm 4 mps 649 mmHg 87%

    15 December, Saturday

    Time Temperature Precipitation Wind Pressure Humidity
    00:00 -1°C° 0.1 mm 4 mps 648 mmHg 86%
    01:00 -1°C° 0.1 mm 4 mps 648 mmHg 86%
    02:00 -1°C° 0.2 mm 4 mps 648 mmHg 86%
    03:00 -1°C° 0.2 mm 4 mps 648 mmHg 86%
    04:00 -1°C° 0.2 mm 4 mps 647 mmHg 86%
    05:00 -1°C° 0.2 mm 4 mps 648 mmHg 86%
    06:00 -1°C° 0.2 mm 4 mps 648 mmHg 87%
    07:00 -1°C° 0.2 mm 4 mps 648 mmHg 87%
    08:00 0°C° 0 mm 4 mps 648 mmHg 85%
    09:00 +1°C° 0 mm 4 mps 648 mmHg 84%
    10:00 +3°C° 0 mm 4 mps 649 mmHg 82%
    11:00 +4°C° 0 mm 4 mps 648 mmHg 80%
    12:00 +4°C° 0 mm 3 mps 648 mmHg 77%
    13:00 +5°C° 0 mm 3 mps 648 mmHg 75%
    14:00 +4°C° 0 mm 3 mps 648 mmHg 78%
    15:00 +3°C° 0 mm 3 mps 648 mmHg 80%
    16:00 +4°C° 0 mm 2 mps 648 mmHg 83%
    17:00 +3°C° 0 mm 2 mps 648 mmHg 83%
    18:00 +3°C° 0 mm 2 mps 648 mmHg 84%
    19:00 +2°C° 0 mm 2 mps 648 mmHg 85%
    20:00 +2°C° 0 mm 2 mps 648 mmHg 85%
    21:00 +2°C° 0 mm 2 mps 648 mmHg 85%
    22:00 +2°C° 0 mm 2 mps 649 mmHg 85%
    23:00 +1°C° 0 mm 2 mps 648 mmHg 85%

    16 December, Sunday

    Time Temperature Precipitation Wind Pressure Humidity
    00:00 +1°C° 0 mm 2 mps 648 mmHg 84%
    01:00 +1°C° 0 mm 2 mps 648 mmHg 84%
    02:00 0°C° 0.1 mm 3 mps 648 mmHg 85%
    03:00 0°C° 0.1 mm 3 mps 648 mmHg 86%
    04:00 -1°C° 0.1 mm 4 mps 648 mmHg 87%
    05:00 -1°C° 0.2 mm 4 mps 648 mmHg 88%
    06:00 -1°C° 0.2 mm 4 mps 648 mmHg 89%
    07:00 -1°C° 0.2 mm 4 mps 649 mmHg 90%
    08:00 +1°C° 0.4 mm 3 mps 649 mmHg 88%
    09:00 +1°C° 0.4 mm 3 mps 649 mmHg 86%
    10:00 +2°C° 0.4 mm 3 mps 650 mmHg 84%
    11:00 +2°C° 0.3 mm 3 mps 650 mmHg 84%
    12:00 +3°C° 0.3 mm 3 mps 650 mmHg 84%
    13:00 +3°C° 0.3 mm 3 mps 650 mmHg 84%
    14:00 +2°C° 0.1 mm 3 mps 650 mmHg 85%
    15:00 +1°C° 0.1 mm 4 mps 650 mmHg 86%
    16:00 +1°C° 0.1 mm 4 mps 650 mmHg 87%
    17:00 0°C° 0 mm 4 mps 651 mmHg 88%
    18:00 0°C° 0 mm 4 mps 651 mmHg 88%
    19:00 -1°C° 0 mm 4 mps 651 mmHg 89%
    20:00 -1°C° 0 mm 4 mps 652 mmHg 88%
    21:00 0°C° 0 mm 3 mps 652 mmHg 88%
    22:00 -1°C° 0 mm 3 mps 652 mmHg 87%
    23:00 -1°C° 0 mm 3 mps 652 mmHg 86%

    17 December, Monday

    Time Temperature Precipitation Wind Pressure Humidity
    00:00 -1°C° 0 mm 3 mps 652 mmHg 85%
    01:00 -1°C° 0 mm 3 mps 653 mmHg 84%
    02:00 -1°C° 0 mm 3 mps 653 mmHg 84%
    03:00 -1°C° 0 mm 3 mps 653 mmHg 83%
    04:00 -1°C° 0 mm 3 mps 653 mmHg 82%
    05:00 -1°C° 0 mm 2 mps 653 mmHg 82%
    06:00 -1°C° 0 mm 2 mps 653 mmHg 82%
    07:00 -1°C° 0 mm 2 mps 653 mmHg 82%
    08:00 +2°C° 0 mm 2 mps 654 mmHg 77%
    09:00 +5°C° 0 mm 1 mps 655 mmHg 72%
    10:00 +7°C° 0 mm 1 mps 655 mmHg 67%
    11:00 +7°C° 0 mm 1 mps 655 mmHg 65%
    12:00 +8°C° 0 mm 1 mps 655 mmHg 63%
    13:00 +9°C° 0 mm 1 mps 655 mmHg 61%
    14:00 +8°C° 0 mm 1 mps 655 mmHg 66%
    15:00 +6°C° 0 mm 1 mps 655 mmHg 71%
    16:00 +5°C° 0 mm 1 mps 654 mmHg 77%
    17:00 +5°C° 0 mm 1 mps 654 mmHg 79%
    18:00 +4°C° 0 mm 1 mps 654 mmHg 81%
    19:00 +3°C° 0 mm 1 mps 654 mmHg 83%
    20:00 +3°C° 0 mm 1 mps 654 mmHg 84%
    21:00 +3°C° 0 mm 1 mps 654 mmHg 85%
    22:00 +3°C° 0 mm 1 mps 654 mmHg 85%
    23:00 +2°C° 0 mm 1 mps 654 mmHg 86%
    Show more